Regional Weather Roundup
Issued by NWS Charleston, WV

Home | Current Version | Previous Version | Text Only | Print | Product List | Glossary Off
Versions: 1 2 3 4 5 6 7 8 9 10 11 12 13 14 15 16 17 18 19 20 21 22 23 24 25 26 27 28 29 30 31 32 33 34 35 36 37 38 39 40 41 42 43 44 45 46 47 48 49 50

000
ASUS41 KRLX 312210
RWRRLX
West Virginia Regional Weather Roundup
National Weather Service Charleston WV
600 PM EDT TUE MAY 31 2016

Note: "fair" indicates few or no clouds below 12,000 feet with no
significant weather and/or obstructions to visibility.

WVZ003-312300-
Northern Panhandle of West Virginia

CITY           SKY/WX    TMP DP  RH WIND       PRES   REMARKS
WHEELING         N/A     83  57  41 CALM      29.98F
$$

WVZ009-312300-
Northwest West Virginia

CITY           SKY/WX    TMP DP  RH WIND       PRES   REMARKS
PARKERSBURG      N/A     87  56  34 CALM      29.99F
$$

WVZ006-312300-
Western West Virginia

CITY           SKY/WX    TMP DP  RH WIND       PRES   REMARKS
HUNTINGTON       N/A     86  54  33 NE6G17    29.95F
$$

WVZ015-312300-
West Central West Virginia

CITY           SKY/WX    TMP DP  RH WIND       PRES   REMARKS
CHARLESTON       N/A     87  52  29 N7        29.96F
$$

WVZ022-031-312300-
North Central West Virginia

CITY           SKY/WX    TMP DP  RH WIND       PRES   REMARKS
CLARKSBURG       N/A     83  57  41 CALM      29.99R
MORGANTOWN       N/A     85  54  34 CALM      30.00S
$$

WVZ025-035-042-045-312300-
Southern West Virginia

CITY           SKY/WX    TMP DP  RH WIND       PRES   REMARKS
BECKLEY          N/A     80  53  39 N9        30.03S
LOGAN            N/A     84  57  39 CALM      29.98S
BLUEFIELD        N/A     76  56  49 E7        30.05R
LEWISBURG        N/A     79  56  45 CALM      30.02F
$$

WVZ047-312300-
Northern Mountains of West Virginia

CITY           SKY/WX    TMP DP  RH WIND       PRES   REMARKS
ELKINS           N/A     81  53  37 NW8       30.02S
$$

WVZ052-312300-
Eastern Panhandle of West Virginia

CITY           SKY/WX    TMP DP  RH WIND       PRES   REMARKS
MARTINSBURG      N/A     85  53  33 CALM      29.96R
PETERSBURG       N/A     85  58  39 CALM      29.99R
$$



USA.gov is the U.S. government's official web portal to all federal, state and local government web resources and services.